Content
SEND FEEDBACK

Daily
Averages
Monthly
Summary
Canada

MONCTON, NEW BRUNSWICK


Home > North America > Canada > New Brunswick
Elevation: 232 feet     Latitude: 46 07N     Longitude: 064 41W

WEATHER
 
SELECT A DAY
Number of Records: 203,455;   Date Range: 1/1/95 - 8/31/14
 
SHARE

PRINT THIS DATA

[ ← Previous Day ]
WEATHER ALMANAC - APRIL 29, 2013
[ Next Day → ]
[ °C ]   °F
Weather ElementAverageHighLow
Temperature45.6 °F60.8 °F (2:00 pm)28.4 °F (4:00 am)
Dewpoint31.3 °F42.8 °F (7:00 pm)24 °F (3:00 pm)
Humidity62.3 %100 % (11:00 pm)15 % (3:00 pm)
Barometer30.29 in30.31 in (9:00 am)30.25 in (5:00 pm)
Wind Speed6.6 mph15 mph (4:00 pm)
Wind Gust20.7 mph (2:00 pm)
Weather ElementAverage
Visibility15 mi
Wind DirectionENE (70.3 °)

Weather ElementTotal
Precipitation---
Heating Degree Days20.4 (Base 65)
Averaged from 29 records on April 29, 2013
WEATHER CONDITIONS BREAKOUT
WIND DIRECTION BREAKOUT
WEATHER BY HOUR - APRIL 29, 2013
[ °C ]   °F
Local TimeTemperatureDewpointHumidityBarometerVisibilityWind DirectionWind SpeedGust SpeedPrecipitationEventsConditions
1:00 AM37.4 °F30.2 °F75 %30.30 in15.0 miWest (270°)4.6 mphClear
1:14 AM35.6 °F28.4 °F75 %30.30 in15.0 miCalmClear
2:00 AM37.4 °F30.2 °F75 %30.30 in15.0 miNW (310°)4.6 mphClear
2:19 AM35.6 °F26.6 °F70 %30.30 in15.0 miWSW (240°)4.6 mphClear
3:00 AM35.0 °F30.0 °F74 %30.30 in15.0 miWSW (240°)4.6 mph
3:00 AM35.6 °F30.2 °F81 %30.30 in15.0 miSW (230°)4.6 mphClear
4:00 AM28.4 °F26.6 °F93 %30.29 in15.0 miCalmClear
5:00 AM32.0 °F30.2 °F93 %30.30 in15.0 miCalmClear
6:00 AM35.6 °F26.6 °F70 %30.30 in15.0 miCalmClear
7:00 AM32.0 °F28.4 °F87 %30.30 in15.0 miWSW (240°)2.3 mphPartly Cloudy
8:00 AM37.4 °F32.0 °F81 %30.30 in15.0 miCalmPartly Cloudy
9:00 AM47.0 °F32.0 °F44 %30.31 in15.0 miNE (40°)3.5 mphClear
9:00 AM46.4 °F32.0 °F57 %30.31 in15.0 miNE (40°)3.5 mphPartly Cloudy
10:00 AM53.6 °F28.4 °F38 %30.30 in15.0 miNNE (30°)11.5 mphPartly Cloudy
11:00 AM55.4 °F26.6 °F33 %30.30 in15.0 miNNE (20°)9.2 mphPartly Cloudy
12:00 PM57.2 °F28.4 °F33 %30.30 in15.0 miNNE (20°)10.4 mphClear
1:00 PM59.0 °F28.4 °F31 %30.29 in15.0 miNNE (30°)10.4 mph17.3 mphClear
2:00 PM60.8 °F26.6 °F27 %30.27 in15.0 miNNE (20°)12.7 mph20.7 mphClear
3:00 PM60.0 °F24.0 °F15 %30.27 in15.0 miNNE (20°)11.5 mphScattered Clouds
3:00 PM60.8 °F24.8 °F25 %30.27 in15.0 miNNE (30°)13.8 mphClear
4:00 PM60.8 °F24.8 °F25 %30.27 in15.0 miNorth (10°)15.0 mphPartly Cloudy
5:00 PM59.0 °F32.0 °F36 %30.25 in15.0 miNNE (30°)12.7 mphPartly Cloudy
6:00 PM55.4 °F41.0 °F58 %30.26 in15.0 miNE (40°)10.4 mphPartly Cloudy
7:00 PM53.6 °F42.8 °F67 %30.26 in15.0 miNNE (30°)8.1 mphPartly Cloudy
8:00 PM48.2 °F42.8 °F82 %30.27 in15.0 miNNE (20°)8.1 mphPartly Cloudy
9:00 PM43.0 °F39.0 °F81 %30.28 in15.0 miNNE (20°)6.9 mphScattered Clouds
9:00 PM42.8 °F39.2 °F87 %30.28 in15.0 miNNE (20°)6.9 mphPartly Cloudy
10:00 PM41.0 °F39.2 °F93 %30.30 in15.0 miNE (40°)5.8 mphPartly Cloudy
11:00 PM37.4 °F37.4 °F100 %30.30 in15.0 miNE (50°)6.9 mphPartly Cloudy
Hourly data recorded from CYQM, located miles away from Moncton, New Brunswick







STORIES FROM OUR PARTNERS